Weather History for CYWG - May, 2013

Change the Weather History Date:

Wednesday, May 22, 2013

  Actual Average Record
Temperature  
Mean Temperature 54 °F -  
Max Temperature 70 °F 62 °F 80 °F (2015)
Min Temperature 38 °F 39 °F 33 °F (2008)
Degree Days  
Heating Degree Days 11    
Growing Degree Days 4 (Base 50)    
Moisture  
Dew Point 39 °F    
Average Humidity 53    
Maximum Humidity 81    
Minimum Humidity 26    
Precipitation  
Precipitation 0.00 in - - ()
Sea Level Pressure  
Sea Level Pressure 30.10 in    
Wind  
Wind Speed 12 mph ()    
Max Wind Speed 29 mph    
Max Gust Speed 36 mph    
Visibility 14.1 miles    
Events      
Averages and records for this station are not official NWS values.
T = Trace of Precipitation, MM = Missing Value Source: Averaged Metar Reports

Daily Weather History Graph

Daily Weather History Graph

Search for Another Location

Airport or City:

Trip Planner

Search our weather history database for the weather conditions in past years. The results will help you decide how hot, cold, wet, or windy it might be!

Date:

Astronomy

May. 22, 2013 Rise Set
Actual Time 5:34 AM CDT 9:17 PM CDT
Civil Twilight 4:53 AM CDT 9:58 PM CDT
Nautical Twilight 3:57 AM CDT 10:54 PM CDT
Astronomical Twilight 2:35 AM CDT 12:19 AM CDT
Moon 6:28 PM CDT (5/22) 3:56 AM CDT (5/22)
Length of Visible Light 17h 05m
Length of Day
15h 43m
Waxing Gibbous, 91% of the Moon is Illuminated
May 22
Waxing Gibbous
May 24
Full
May 31
Last Quarter
Jun 8
New
Jun 16
First Quarter

Hourly Weather History & Observations

Time (CDT) Temp. Windchill Dew Point Humidity Pressure Visibility Wind Dir Wind Speed Gust Speed Precip Events Conditions
12:00 AM 42.8 °F 37.0 °F 35.6 °F 76% 30.01 in 15.0 mi NNE 10.4 mph - N/A   Clear
1:00 AM 44 °F - 36 °F 64% 30.02 in 9 mi Calm Calm - -  
1:00 AM 44.6 °F 39.2 °F 33.8 °F 66% 30.02 in 15.0 mi NNE 10.4 mph - N/A   Clear
2:00 AM 42.8 °F 37.5 °F 33.8 °F 70% 30.03 in 15.0 mi NNE 9.2 mph - N/A   Clear
3:00 AM 42.8 °F 41.1 °F 33.8 °F 70% 30.04 in 15.0 mi NNE 3.5 mph - N/A   Clear
4:00 AM 41.0 °F 39.0 °F 33.8 °F 76% 30.04 in 15.0 mi NNE 3.5 mph - N/A   Clear
5:00 AM 41.0 °F 39.0 °F 32.0 °F 70% 30.04 in 15.0 mi North 3.5 mph - N/A   Clear
6:00 AM 39.2 °F 33.6 °F 33.8 °F 81% 30.07 in 15.0 mi NNE 8.1 mph - N/A   Partly Cloudy
7:00 AM 46 °F - 38 °F 65% 30.07 in 9 mi Calm Calm - -  
7:00 AM 44.6 °F 39.7 °F 35.6 °F 71% 30.08 in 15.0 mi NE 9.2 mph - N/A   Partly Cloudy
8:00 AM 51.8 °F - 41.0 °F 67% 30.07 in 15.0 mi NNE 6.9 mph - N/A   Partly Cloudy
9:00 AM 59.0 °F - 39.2 °F 48% 30.09 in 15.0 mi NE 6.9 mph - N/A   Partly Cloudy
10:00 AM 64.4 °F - 37.4 °F 37% 30.09 in 15.0 mi NNE 13.8 mph - N/A   Partly Cloudy
11:00 AM 68.0 °F - 41.0 °F 37% 30.09 in 15.0 mi North 15.0 mph 21.9 mph N/A   Mostly Cloudy
12:00 PM 66.2 °F - 44.6 °F 46% 30.10 in 15.0 mi NNE 21.9 mph - N/A   Scattered Clouds
1:00 PM 67 °F - 47 °F 37% 30.11 in 9 mi Calm Calm - -  
1:00 PM 66.2 °F - 46.4 °F 49% 30.10 in 15.0 mi NNE 23.0 mph 28.8 mph N/A   Scattered Clouds
2:00 PM 68.0 °F - 44.6 °F 43% 30.10 in 15.0 mi NNE 21.9 mph 28.8 mph N/A   Partly Cloudy
3:00 PM 68.0 °F - 46.4 °F 46% 30.10 in 15.0 mi NNE 25.3 mph 32.2 mph N/A   Partly Cloudy
4:00 PM 68.0 °F - 46.4 °F 46% 30.11 in 15.0 mi NNE 24.2 mph 32.2 mph N/A   Partly Cloudy
5:00 PM 68.0 °F - 42.8 °F 40% 30.12 in 15.0 mi NNE 24.2 mph - N/A   Partly Cloudy
6:00 PM 66.2 °F - 39.2 °F 37% 30.13 in 15.0 mi NNE 27.6 mph 33.4 mph N/A   Partly Cloudy
7:00 PM 65 °F - 38 °F 26% 30.15 in 9 mi Calm Calm - -  
7:00 PM 64.4 °F - 37.4 °F 37% 30.14 in 15.0 mi NNE 28.8 mph 35.7 mph N/A   Partly Cloudy
8:00 PM 62.6 °F - 35.6 °F 37% 30.17 in 15.0 mi NNE 27.6 mph 34.5 mph N/A   Partly Cloudy
9:00 PM 57.2 °F - 35.6 °F 44% 30.19 in 15.0 mi NNE 18.4 mph 25.3 mph N/A   Partly Cloudy
10:00 PM 53.6 °F - 35.6 °F 51% 30.22 in 15.0 mi NNE 15.0 mph - N/A   Clear
11:00 PM 50.0 °F - 35.6 °F 58% 30.25 in 15.0 mi NNE 11.5 mph - N/A   Clear